Regional Weather Roundup
Issued by NWS

Home | Current Version | Previous Version | Graphics & Text | Print | Product List | Glossary On
Versions: 1 2 3 4 5 6 7 8 9 10 11 12 13 14 15 16 17 18 19 20 21 22 23 24 25 26 27 28 29 30 31 32 33 34 35 36 37 38 39 40 41 42 43 44 45 46 47 48 49 50
000
ASUS43 KMPX 291010
RWRMN
WEATHER ROUNDUP FOR MINNESOTA
NATIONAL WEATHER SERVICE TWIN CITIES/CHANHASSEN MN
500 AM CDT WED JUL 29 2015


NOTE: "FAIR" INDICATES FEW OR NO CLOUDS BELOW 12,000 FEET WITH NO
SIGNIFICANT WEATHER AND/OR OBSTRUCTIONS TO VISIBILITY. N/A MEANS
CURRENT SKY AND/OR WEATHER CONDITIONS ARE NOT AVAILABLE.

MNZ060>063-068>070-291100-
   Twin Cities Metro

CITY           SKY/WX    TMP DP  RH WIND       PRES   REMARKS
TWIN CITIES    PTCLDY    67  53  61 W13       29.92S
ST PAUL        CLEAR     66  53  63 SW12      29.92S
CRYSTAL        CLEAR     69  49  48 SW17G25   29.90R
BLAINE         CLEAR     70  48  46 SW15G23   29.90S
LAKEVILLE      CLEAR     61  55  82 CALM      29.95R
EDEN PRAIRIE   CLEAR     63  55  75 W10       29.92S
SOUTH ST PAUL  CLEAR     65  52  62 SW6       29.92S
LAKE ELMO      FAIR      64  54  68 SW8       29.92S
$$
MNZ001>005-007-008-013>017-022>024-027-028-291100-
   Northwest Minnesota

CITY           SKY/WX    TMP DP  RH WIND       PRES   REMARKS
BEMIDJI        CLOUDY    62  52  69 SW23G36   29.66S
HALLOCK        CLOUDY    63  55  77 W26G35    29.50R
ROSEAU         CLOUDY    61  55  82 SW16G28   29.47R
WARROAD        CLOUDY    61  57  88 SW20G26   29.46S
THIEF RVR FALL CLOUDY    63  54  72 W18G33    29.59R
CROOKSTON      CLOUDY    64  55  72 W23G29    29.62S
FOSSTON        CLOUDY    61  52  72 SW23G33   29.66S
DETROIT LAKES  CLOUDY    63  50  63 W21G33    29.76S
MOORHEAD       CLOUDY    64  52  63 SW15G23   29.77R
PARK RAPIDS    CLOUDY    65  50  58 W23G32    29.73R
MAHNOMEN       CLOUDY    63  52  67 W15G33    29.70S
$$
MNZ006-009>011-018-025>026-291100-
   North Central Minnesota

CITY           SKY/WX    TMP DP  RH WIND       PRES   REMARKS
BAUDETTE       CLOUDY    61  54  77 SW22G35   29.50R
FLAG ISLAND    LGT RAIN  63  59  88 SW24G33   29.39S
INTL FALLS     LGT RAIN  63  52  67 SW21G30   29.53F
WASKISH        CLOUDY    64  55  72 SW26G40   29.57S
BIG FORK       CLOUDY    64  52  63 SW16G35   29.63S
LONGVILLE      CLOUDY    64  50  59 W16G28    29.72R
GRAND RAPIDS   CLOUDY    64  46  52 SW10G25   29.70S
CRANE LAKE     CLOUDY    63  48  59 S9        29.61F
ORR            CLOUDY    64  46  52 SW12G25   29.59S
COOK           CLOUDY    64  48  55 SW12G21   29.63F
WALKER         CLOUDY    63  50  63 SW22G30   29.69S
$$
MNZ012-019>021-037-291100-
   Northeast Minnesota

CITY           SKY/WX    TMP DP  RH WIND       PRES   REMARKS
DULUTH         CLEAR     65  47  52 SW17G26   29.72F
ELY            CLEAR     63  46  55 SW9G18    29.65S
HIBBING        CLOUDY    64  47  53 SW14G22   29.67F
EVELETH        MOCLDY    63  45  51 SW24G30   29.68S
DULUTH HARBOR  CLEAR     66  54  63 SW15      29.72S
TWO HARBORS    CLEAR     64  55  72 SW9       29.69F
SILVER BAY     CLEAR     64  54  68 S8        29.68S
GRAND MARAIS     N/A     57  55  93 W7        29.66F
G MARAIS ARPRT CLEAR     63  48  59 S12G24    29.70F
$$
MNZ029>031-032-039>041-046>048-054>057-064-291100-
   West Central Minnesota

CITY           SKY/WX    TMP DP  RH WIND       PRES   REMARKS
FERGUS FALLS   CLEAR     63  50  63 W18G25    29.82S
WHEATON        CLEAR     63  48  59 SW17      29.90S
MORRIS         CLEAR     63  50  63 W16G23    29.89R
ALEXANDRIA     CLEAR     65  49  56 W22G33    29.87R
ELBOW LAKE     FAIR      62  49  61 W18G30    29.85S
WADENA         CLOUDY    63  48  59 W18G30    29.78S
GLENWOOD       CLEAR     63  50  63 SW13      29.90R
APPLETON       CLEAR     63  50  63 SW9       29.93S
BENSON         CLEAR     63  48  59 W12       29.92S
ORTONVILLE     CLEAR     63  48  59 W13G18    29.93R
MADISON        CLEAR     63  48  59 SW12      29.96R
WILLMAR        FAIR      61  54  77 SW13      29.95S
$$
MNZ033>034-036-042>043-049>051-058-059-291100-
   Central Minnesota

CITY           SKY/WX    TMP DP  RH WIND       PRES   REMARKS
ST CLOUD       CLEAR     67  48  50 W23G31    29.86S
SAUK CENTRE    FAIR      63  49  61 SW17G26   29.88S
PAYNESVILLE    CLEAR     61  49  65 S17G24    29.91S
AITKIN         CLOUDY    66  48  52 SW17G31   29.75S
PINE RIVER     CLOUDY    64  52  63 SW13G24   29.78S
BRAINERD       CLOUDY    65  48  54 SW23G36   29.78S
STAPLES        CLOUDY    64  46  52 W21G32    29.79S
LONG PRAIRIE   FAIR      63  48  59 SW13G20   29.86S
LITTLE FALLS   CLEAR     64  46  52 W18G24    29.84S
LITCHFIELD     CLEAR     64  54  68 W10       29.93S
BUFFALO        CLEAR     64  51  61 SW9       29.92R
MAPLE LAKE     CLEAR     64  54  68 SW9       29.91R
$$
MNZ037-044-045-052-053-291100-
   East Central Minnesota

CITY           SKY/WX    TMP DP  RH WIND       PRES   REMARKS
PRINCETON      CLEAR     66  50  55 SW10G22   29.86S
MORA           CLEAR     64  50  59 W13G22    29.84R
CAMBRIDGE      CLEAR     70  52  52 SW13G18   29.84S
RUSH CITY      PTCLDY    64  53  66 SW12      29.84F
MOOSE LAKE     CLEAR     64  46  52 SW14G22   29.74F
HINCKLEY       FAIR      63  52  67 SW14      29.81S
MCGREGOR       PTCLDY    64  48  55 SW12G25   29.76R
$$
MNZ071>073-080-081-089-090-097-098-291100-
   Southwest Minnesota

CITY           SKY/WX    TMP DP  RH WIND       PRES   REMARKS
MONTEVIDEO     CLEAR     63  52  67 W9G16     29.98R
GRANITE FALLS  CLEAR     63  50  61 SW10G18   30.00R
CANBY          CLEAR     63  49  59 W12G18    30.01R
MARSHALL       CLEAR     61  48  63 W15       30.01S
REDWOOD FALLS  CLEAR     66  50  56 W18G26    29.97S
OLIVIA         CLEAR     59  48  67 W14       29.96S
PIPESTONE      CLEAR     57  52  82 W6        30.07R
WINDOM         CLEAR     61  52  72 SW9       30.04R
WORTHINGTON    CLEAR     57  50  77 SW8       30.07R
JACKSON        CLEAR     61  54  77 SW7       30.06S
TRACY          CLEAR     63  52  67 W12G17    30.03R
SLAYTON        CLEAR     61  51  70 CALM      30.06S
$$
MNZ065>067-074>077-082>085-091>093-291100-
   South Central Minnesota

CITY           SKY/WX    TMP DP  RH WIND       PRES   REMARKS
MANKATO        CLEAR     61  52  72 W9        29.99R
NEW ULM        CLEAR     61  54  77 SW7       29.99R
ST JAMES       CLEAR     61  55  82 SW8       30.02S
FAIRMONT       CLEAR     61  52  72 W8        30.03S
GLENCOE        CLEAR     63  56  78 SW9       29.95R
FARIBAULT      PTCLDY    63  57  82 S5        29.98S
OWATONNA       PTCLDY    61  55  82 SW8       29.99F
WASECA         PTCLDY    59  55  88 SW7       30.01S
ALBERT LEA     PTCLDY    64  55  72 W6        30.02S
$$
MNZ078>079-086>088-094>096-291100-
   Southeast Minnesota

CITY           SKY/WX    TMP DP  RH WIND       PRES   REMARKS
ROCHESTER      PTCLDY    62  57  83 W12       30.00R
RED WING       PTCLDY    66  55  68 CALM      29.93S
STANTON        PTCLDY    62  57  84 SW8       29.95S
DODGE CENTER   PTCLDY    61  57  88 W7        30.00S
WINONA         MOCLDY    70  55  60 W3        29.97R
AUSTIN         MOCLDY    64  57  77 W5        30.01S
PRESTON        MOCLDY    63  56  80 W8        30.01R
$$
ABBREVIATIONS USED IN REMARKS
   TC - TEMPERATURES IN CELSIUS
  WCI - WIND CHILL INDEX
   HX - HEAT INDEX
  VSB - VISIBILITY
$$


USA.gov is the U.S. government's official web portal to all federal, state and local government web resources and services.